This is the latest recevied weather packets stored in our database for station/object N0MPM-4. If no packets are shown the sender has not sent any weather packets the latest 10 day(s).
| Time | Temp. | Humidity | Pressure | Rain* | Wind** | Luminosity | Snow |
|---|---|---|---|---|---|---|---|
| 1788032709 | 21.11° C | 58% | 1013.1 hPa | 1.02 mm | - | - | - |
| 1788032565 | 21.11° C | 64% | 1013 hPa | 0.25 mm | - | - | - |
| 1788032387 | 21.11° C | 58% | 1013.1 hPa | 1.02 mm | - | - | - |
| 1788032265 | 21.11° C | 60% | 1013.2 hPa | 1.02 mm | - | - | - |
| 1788032027 | 20.56° C | 51% | 1013.3 hPa | 1.02 mm | - | - | - |
| 1788031965 | 20.56° C | 51% | 1013.3 hPa | 1.02 mm | - | - | - |
| 1788031836 | 20.56° C | 49% | 1013.4 hPa | 1.02 mm | - | - | - |
| 1788031665 | 20.56° C | 49% | 1013.4 hPa | 1.02 mm | - | - | - |
| 1788031629 | 20.56° C | 49% | 1013.5 hPa | 1.02 mm | - | - | - |
| 1788031365 | 20.56° C | 49% | 1013.5 hPa | 1.02 mm | - | - | - |
| 1788031307 | 20.56° C | 49% | 1013.5 hPa | 1.02 mm | - | - | - |
| 1788031255 | 20.56° C | 51% | 1013.6 hPa | 1.02 mm | - | - | - |
| 1788031065 | 20.56° C | 51% | 1013.6 hPa | 1.02 mm | - | - | - |
| 1788030947 | 20.56° C | 51% | 1013.6 hPa | 1.02 mm | - | - | - |
| 1788030765 | 20° C | 56% | 1013.7 hPa | 1.02 mm | - | - | - |
| 1788030587 | 20.56° C | 57% | 1013.9 hPa | 1.02 mm | - | - | - |
| 1788030465 | 20.56° C | 57% | 1013.9 hPa | 1.02 mm | - | - | - |
| 1788030227 | 20.56° C | 58% | 1014 hPa | 1.02 mm | - | - | - |
| 1788030165 | 20.56° C | 60% | 1014 hPa | 1.02 mm | - | - | - |
| 1788030068 | 20.56° C | 62% | 1014.2 hPa | 1.02 mm | - | - | - |
| 1788029865 | 20.56° C | 62% | 1014.2 hPa | 1.02 mm | - | - | - |
| 1788029707 | 20.56° C | 66% | 1014.2 hPa | 1.02 mm | - | - | - |
| 1788029565 | 20.56° C | 65% | 1014.2 hPa | 1.02 mm | - | - | - |
| 1788029506 | 20.56° C | 66% | 1014.2 hPa | 1.02 mm | - | - | - |
| 1788029403 | 20.56° C | 71% | 1014 hPa | 0.76 mm | - | - | - |
* Rain latest hour (hover to see other rain measurements)
** Current wind speed in m/s (hover to see current wind gust speed)